Regional Weather Roundup
Issued by NWS

Home | Current Version | Previous Version | Graphics & Text | Print | Product List | Glossary Off
Versions: 1 2 3 4 5 6 7 8 9 10 11 12 13 14 15 16 17 18 19 20 21 22 23 24 25 26 27 28 29 30 31 32 33 34 35 36 37 38 39 40 41 42 43 44 45 46 47 48 49 50

000
ASUS43 KTOP 280808
RWRKS

WEATHER ROUNDUP FOR KANSAS
NATIONAL WEATHER SERVICE GOODLAND KS
300 AM CDT THU APR 28 2016

NOTE:  "FAIR" INDICATES FEW OR NO CLOUDS BELOW 12,000 FEET WITH NO
SIGNIFICANT WEATHER AND/OR OBSTRUCTIONS TO VISIBILITY.

KSZ001>006-013>018-027>032-041>047-280900-
NORTHWEST KANSAS

CITY           SKY/WX    TMP DP  RH WIND       PRES   REMARKS
GOODLAND       CLOUDY    32  30  92 NW6       29.90F
HAYS           CLEAR     43  28  56 NW15G24   29.85S
HILL CITY      CLEAR     39  33  79 NW12      29.88S WCI  32
RUSSELL        CLEAR     41  35  79 NW15      29.82S
$$

KSZ061>065-074>080-084>089-280900-
SOUTHWEST KANSAS

CITY           SKY/WX    TMP DP  RH WIND       PRES   REMARKS
DODGE CITY     MOCLDY    43  38  82 NW5       29.88F
ELKHART          N/A     45  35  68 E6          N/A
GARDEN CITY    CLOUDY    44  38  79 N6        29.88S
GREAT BEND     CLOUDY    43  32  65 W9        29.88R
LIBERAL        CLOUDY    52  36  54 NE8       29.89R
PRATT          PTCLDY    43  37  78 N9        29.85F
$$

KSZ066>073-081>083-090>101-280900-
SOUTHEAST KANSAS

CITY           SKY/WX    TMP DP  RH WIND       PRES   REMARKS
CHANUTE        CLEAR     50  41  71 W8        29.80S
COFFEYVILLE    CLEAR     51  43  74 W6        29.82S
HUTCHINSON     CLEAR     46  38  73 W9        29.85R
MEDICINE LODGE   N/A     47  41  80 N3        29.87R
NEWTON         CLEAR     45  34  65 W12       29.85R
PARSONS        CLEAR     50  42  74 N5        29.81F
WICHITA INTL   PTCLDY    47  39  74 NW6       29.84R
WICHITA JABRA  CLEAR     47  39  74 W9        29.84R
WICHITA MCCONL CLEAR     49  39  66 N9        29.84R
WINFIELD       CLEAR     46  43  89 W6        29.86R
$$

KSZ007>012-019>026-033>040-048>060-102>105-280900-
NORTHEAST KANSAS

CITY           SKY/WX    TMP DP  RH WIND       PRES   REMARKS
CONCORDIA      CLEAR     40  34  79 W16G23    29.80R WCI  31
EMPORIA        CLEAR     46  38  73 W12       29.79S
LAWRENCE       MOCLDY    47  39  74 W12       29.74F
MANHATTAN      MOCLDY    46  35  65 W14G23    29.78R
MARYSVILLE     CLOUDY    45  41  87 W14G22    29.73S
OLATHE IND     CLEAR     47  38  71 W13       29.76R
OLATHE EXE     PTCLDY    47  38  71 W13G22    29.75R
SALINA         CLEAR     46  37  71 W18G25    29.81S
TOPEKA BILLARD MOCLDY    47  37  68 W10G18    29.75S
TOPEKA FORBES  MOCLDY    47  38  71 W14       29.75S
$$




USA.gov is the U.S. government's official web portal to all federal, state and local government web resources and services.